LZ1BAB-WX Weather Reports


time (UTC)temp
C
wind
direction
speed
KPH
gust
KPH
rain 1hr
cm
rain 24hr
cm
rain mn
cm
humidity
%
barometer
mb
20260507105921 25 34 3.2 8.0 0.00 0.00 0.00 47 1016.7
20260507105721 25 193 4.8 6.4 0.00 0.00 0.00 47 1017.0
20260507105521 25 82 0.0 6.4 0.00 0.00 0.00 47 1017.1
20260507105322 25 19 0.0 4.8 0.00 0.00 0.00 45 1016.8
20260507105121 25 331 3.2 4.8 0.00 0.00 0.00 46 1016.7
20260507104921 25 342 1.6 4.8 0.00 0.00 0.00 46 1017.2
20260507104722 25 222 3.2 6.4 0.00 0.00 0.00 47 1017.0
20260507104521 25 243 4.8 6.4 0.00 0.00 0.00 47 1016.8
20260507104321 25 338 4.8 6.4 0.00 0.00 0.00 47 1017.1
20260507104121 25 14 3.2 6.4 0.00 0.00 0.00 47 1016.8
20260507103921 25 328 0.0 6.4 0.00 0.00 0.00 48 1016.7
20260507103721 25 123 3.2 9.7 0.00 0.00 0.00 49 1017.1
20260507103521 24 294 3.2 9.7 0.00 0.00 0.00 50 1016.8
20260507103321 23 127 0.0 9.7 0.00 0.00 0.00 50 1017.0
20260507103121 23 21 1.6 9.7 0.00 0.00 0.00 50 1017.0
20260507102921 24 357 3.2 9.7 0.00 0.00 0.00 50 1016.8
20260507102721 24 254 0.0 8.0 0.00 0.00 0.00 47 1017.1
20260507102522 24 356 0.0 8.0 0.00 0.00 0.00 50 1017.0
20260507102322 25 352 8.0 8.0 0.00 0.00 0.00 50 1017.2
20260507102122 25 151 3.2 8.0 0.00 0.00 0.00 51 1017.1
20260507101921 25 183 1.6 8.0 0.00 0.00 0.00 48 1017.3
20260507101721 25 149 3.2 8.0 0.00 0.00 0.00 50 1017.4
20260507101522 24 130 0.0 8.0 0.00 0.00 0.00 50 1017.1
20260507101321 24 137 3.2 8.0 0.00 0.00 0.00 49 1017.2
20260507101121 24 204 4.8 8.0 0.00 0.00 0.00 49 1017.4
20260507100921 24 144 6.4 8.0 0.00 0.00 0.00 50 1017.3
20260507100721 24 220 6.4 8.0 0.00 0.00 0.00 48 1017.2
20260507100523 23 196 1.6 8.0 0.00 0.00 0.00 49 1017.2
20260507100322 24 159 3.2 8.0 0.00 0.00 0.00 49 1017.4
20260507100122 23 156 3.2 8.0 0.00 0.00 0.00 50 1017.6
20260507095922 23 186 3.2 8.0 0.00 0.00 0.00 49 1017.3
20260507095722 24 183 3.2 8.0 0.00 0.00 0.00 49 1017.3
20260507095521 23 180 1.6 6.4 0.00 0.00 0.00 50 1017.4
20260507095322 23 200 4.8 6.4 0.00 0.00 0.00 51 1017.4
20260507095122 23 192 4.8 6.4 0.00 0.00 0.00 51 1017.5
20260507094922 23 189 0.0 8.0 0.00 0.00 0.00 51 1017.5
20260507094722 23 161 4.8 8.0 0.00 0.00 0.00 51 1017.4
20260507094509 23 322 1.6 8.0 0.00 0.00 0.00 49 1017.5
20260507094310 23 272 1.6 8.0 0.00 0.00 0.00 53 1017.5
20260507094109 23 147 8.0 8.0 0.00 0.00 0.00 49 1017.5
20260507093909 23 227 0.0 6.4 0.00 0.00 0.00 51 1017.6
20260507093709 23 127 0.0 6.4 0.00 0.00 0.00 50 1017.6
20260507093509 23 183 3.2 6.4 0.00 0.00 0.00 53 1017.6
20260507093309 23 132 1.6 6.4 0.00 0.00 0.00 50 1017.6
20260507093110 23 214 3.2 6.4 0.00 0.00 0.00 52 1017.6
20260507092910 23 130 0.0 6.4 0.00 0.00 0.00 51 1017.7
20260507092710 23 143 3.2 8.0 0.00 0.00 0.00 51 1017.8
20260507092509 23 170 3.2 8.0 0.00 0.00 0.00 53 1017.6
20260507092309 22 242 0.0 8.0 0.00 0.00 0.00 52 1017.9
20260507092109 22 104 0.0 8.0 0.00 0.00 0.00 52 1017.6
20260507091910 22 273 1.6 8.0 0.00 0.00 0.00 55 1017.7
20260507091709 22 188 3.2 8.0 0.00 0.00 0.00 53 1017.6
20260507091509 22 154 3.2 8.0 0.00 0.00 0.00 53 1017.7
20260507091309 22 199 6.4 8.0 0.00 0.00 0.00 53 1017.8
20260507091109 22 351 3.2 8.0 0.00 0.00 0.00 53 1017.7
20260507090909 22 218 0.0 8.0 0.00 0.00 0.00 55 1017.6
20260507090709 22 140 6.4 8.0 0.00 0.00 0.00 54 1017.8
20260507090508 22 349 4.8 8.0 0.00 0.00 0.00 55 1017.6
20260507090310 22 315 1.6 6.4 0.00 0.00 0.00 54 1017.5
20260507090109 22 48 6.4 6.4 0.00 0.00 0.00 53 1017.6
20260507085909 22 165 0.0 6.4 0.00 0.00 0.00 54 1017.8
20260507085710 22 144 0.0 6.4 0.00 0.00 0.00 54 1017.8
20260507085509 22 358 1.6 6.4 0.00 0.00 0.00 54 1017.7
20260507085309 22 177 1.6 6.4 0.00 0.00 0.00 54 1017.7
20260507085109 22 33 0.0 6.4 0.00 0.00 0.00 54 1017.6
20260507084910 22 208 0.0 4.8 0.00 0.00 0.00 56 1017.6
20260507084709 22 126 3.2 6.4 0.00 0.00 0.00 55 1017.8
20260507084510 22 156 3.2 6.4 0.00 0.00 0.00 55 1017.6
20260507084309 22 213 3.2 6.4 0.00 0.00 0.00 54 1017.7
20260507084108 22 329 1.6 6.4 0.00 0.00 0.00 54 1017.6
20260507083909 22 179 4.8 6.4 0.00 0.00 0.00 56 1017.7
20260507083708 22 161 3.2 6.4 0.00 0.00 0.00 55 1017.8
20260507083508 22 281 1.6 8.0 0.00 0.00 0.00 54 1017.8
20260507083308 21 171 1.6 8.0 0.00 0.00 0.00 55 1017.8
20260507083108 21 147 0.0 8.0 0.00 0.00 0.00 56 1017.8
20260507082908 21 202 1.6 8.0 0.00 0.00 0.00 57 1018.0
20260507082708 21 188 3.2 8.0 0.00 0.00 0.00 57 1018.0
20260507082508 21 222 3.2 6.4 0.00 0.00 0.00 59 1018.0
20260507082308 21 214 0.0 6.4 0.00 0.00 0.00 56 1018.0
20260507082108 21 214 3.2 6.4 0.00 0.00 0.00 57 1018.1
20260507081908 21 175 3.2 3.2 0.00 0.00 0.00 57 1017.8
20260507081708 21 326 0.0 4.8 0.00 0.00 0.00 56 1018.1
20260507081523 21 164 0.0 4.8 0.00 0.00 0.00 57 1017.8
20260507081309 21 200 0.0 4.8 0.00 0.00 0.00 58 1017.9
20260507081108 21 224 0.0 4.8 0.00 0.00 0.00 58 1018.0
20260507080908 20 148 0.0 6.4 0.00 0.00 0.00 58 1017.8
20260507080708 20 359 1.6 6.4 0.00 0.00 0.00 58 1017.8
20260507080508 20 211 0.0 6.4 0.00 0.00 0.00 59 1017.9
20260507080308 20 133 1.6 6.4 0.00 0.00 0.00 59 1017.6
20260507075908 20 142 3.2 8.0 0.00 0.00 0.00 59 1017.5
20260507075708 20 167 1.6 8.0 0.00 0.00 0.00 61 1017.7
20260507075508 20 215 4.8 8.0 0.00 0.00 0.00 62 1017.8
20260507075309 20 246 3.2 8.0 0.00 0.00 0.00 62 1017.7
20260507075109 20 294 0.0 6.4 0.00 0.00 0.00 60 1017.7
20260507074909 20 157 4.8 6.4 0.00 0.00 0.00 59 1017.7
20260507074708 20 333 0.0 4.8 0.00 0.00 0.00 59 1017.8
20260507074509 20 56 1.6 6.4 0.00 0.00 0.00 59 1017.6
20260507074308 20 34 0.0 6.4 0.00 0.00 0.00 60 1017.8
20260507074108 20 129 1.6 6.4 0.00 0.00 0.00 62 1017.9
20260507073908 19 202 3.2 6.4 0.00 0.00 0.00 63 1017.8
20260507073708 19 123 1.6 6.4 0.00 0.00 0.00 61 1017.7
20260507073508 20 150 6.4 6.4 0.00 0.00 0.00 61 1017.7
20260507073310 20 161 0.0 6.4 0.00 0.00 0.00 60 1017.8
20260507073109 20 82 0.0 6.4 0.00 0.00 0.00 62 1017.8
20260507072909 20 13 3.2 4.8 0.00 0.00 0.00 60 1017.9
20260507072709 20 89 0.0 6.4 0.00 0.00 0.00 60 1017.9
20260507072509 19 244 0.0 8.0 0.00 0.00 0.00 61 1017.6
20260507072308 19 89 0.0 8.0 0.00 0.00 0.00 62 1017.8
20260507072109 19 164 0.0 8.0 0.00 0.00 0.00 61 1017.9
20260507071909 19 213 0.0 8.0 0.00 0.00 0.00 62 1017.7
20260507071709 20 168 1.6 8.0 0.00 0.00 0.00 60 1018.0
20260507071508 20 134 0.0 4.8 0.00 0.00 0.00 61 1017.8
20260507071308 19 220 1.6 4.8 0.00 0.00 0.00 61 1017.9
20260507071108 18 185 1.6 4.8 0.00 0.00 0.00 63 1017.9
20260507070908 18 4 0.0 4.8 0.00 0.00 0.00 63 1017.9
20260507070708 18 37 4.8 4.8 0.00 0.00 0.00 62 1017.9
20260507070508 18 63 3.2 4.8 0.00 0.00 0.00 63 1017.9
20260507070308 18 147 4.8 4.8 0.00 0.00 0.00 63 1017.8
20260507070108 18 159 3.2 4.8 0.00 0.00 0.00 63 1018.1
20260507065909 18 7 1.6 3.2 0.00 0.00 0.00 63 1018.0
20260507065708 18 202 0.0 4.8 0.00 0.00 0.00 64 1018.0
20260507065508 18 57 1.6 4.8 0.00 0.00 0.00 63 1018.0
20260507065308 18 121 1.6 4.8 0.00 0.00 0.00 64 1018.0
20260507065110 17 105 3.2 4.8 0.00 0.00 0.00 64 1018.0
20260507064909 18 176 3.2 4.8 0.00 0.00 0.00 65 1017.9
20260507064708 17 65 1.6 4.8 0.00 0.00 0.00 66 1018.0
20260507064508 18 141 0.0 4.8 0.00 0.00 0.00 65 1018.0
20260507064308 17 151 3.2 4.8 0.00 0.00 0.00 66 1018.1
20260507064108 17 205 0.0 4.8 0.00 0.00 0.00 68 1018.0
20260507063908 17 187 3.2 4.8 0.00 0.00 0.00 65 1018.0
20260507063708 17 165 3.2 4.8 0.00 0.00 0.00 65 1018.0
20260507063508 17 359 1.6 4.8 0.00 0.00 0.00 65 1018.1
20260507063308 17 139 0.0 4.8 0.00 0.00 0.00 66 1018.3
20260507063108 17 132 3.2 6.4 0.00 0.00 0.00 67 1018.1
20260507062908 17 3 1.6 6.4 0.00 0.00 0.00 67 1018.1
20260507062708 17 132 0.0 6.4 0.00 0.00 0.00 67 1018.3
20260507062508 16 122 0.0 6.4 0.00 0.00 0.00 70 1017.9
20260507062308 16 168 3.2 6.4 0.00 0.00 0.00 69 1018.1
20260507062108 16 161 3.2 4.8 0.00 0.00 0.00 68 1018.1
20260507061908 17 139 4.8 4.8 0.00 0.00 0.00 68 1017.9
20260507061708 16 14 0.0 4.8 0.00 0.00 0.00 68 1017.9
20260507061308 16 1 1.6 4.8 0.00 0.00 0.00 68 1018.0
20260507061108 17 94 0.0 4.8 0.00 0.00 0.00 67 1017.8
20260507060910 16 123 4.8 4.8 0.00 0.00 0.00 68 1018.1
20260507060708 16 121 0.0 4.8 0.00 0.00 0.00 69 1017.9
20260507060508 16 152 1.6 4.8 0.00 0.00 0.00 70 1018.0
20260507060309 15 40 3.2 4.8 0.00 0.00 0.00 71 1017.9
20260507060109 15 69 1.6 4.8 0.00 0.00 0.00 72 1017.9
20260507055909 15 135 0.0 4.8 0.00 0.00 0.00 75 1017.8
20260507055709 15 136 4.8 6.4 0.00 0.00 0.00 74 1018.0
20260507055509 14 178 3.2 6.4 0.00 0.00 0.00 75 1017.9
20260507055309 15 172 3.2 6.4 0.00 0.00 0.00 74 1018.0
20260507055108 15 163 3.2 6.4 0.00 0.00 0.00 75 1017.9
20260507054908 14 129 1.6 6.4 0.00 0.00 0.00 75 1018.1
20260507054709 14 131 3.2 4.8 0.00 0.00 0.00 75 1018.0
20260507054508 14 123 1.6 4.8 0.00 0.00 0.00 75 1018.1
20260507054308 14 159 4.8 4.8 0.00 0.00 0.00 76 1017.9
20260507054108 14 142 3.2 4.8 0.00 0.00 0.00 77 1018.1
20260507053909 14 199 1.6 3.2 0.00 0.00 0.00 77 1018.0
20260507053709 14 180 1.6 3.2 0.00 0.00 0.00 77 1018.0
20260507053509 14 169 0.0 3.2 0.00 0.00 0.00 76 1018.0
20260507053309 13 220 3.2 3.2 0.00 0.00 0.00 76 1017.9
20260507053109 13 142 0.0 3.2 0.00 0.00 0.00 77 1018.1
20260507052909 13 300 3.2 3.2 0.00 0.00 0.00 77 1018.0
20260507052709 13 304 0.0 3.2 0.00 0.00 0.00 77 1017.9
20260507052508 13 242 0.0 3.2 0.00 0.00 0.00 79 1017.9
20260507052308 13 217 0.0 3.2 0.00 0.00 0.00 78 1018.0
20260507052108 13 258 1.6 3.2 0.00 0.00 0.00 79 1018.0
20260507051909 13 142 0.0 3.2 0.00 0.00 0.00 79 1017.9
20260507051711 13 159 0.0 3.2 0.00 0.00 0.00 78 1017.9
20260507051508 13 143 0.0 3.2 0.00 0.00 0.00 78 1018.1
20260507051308 13 191 0.0 3.2 0.00 0.00 0.00 79 1018.0
20260507051108 13 158 0.0 3.2 0.00 0.00 0.00 79 1018.0
20260507050908 12 68 0.0 3.2 0.00 0.00 0.00 78 1017.8
20260507050708 12 143 0.0 3.2 0.00 0.00 0.00 80 1017.9
20260507050508 12 155 0.0 3.2 0.00 0.00 0.00 79 1018.0
20260507050311 11 114 1.6 3.2 0.00 0.00 0.00 83 1017.9
20260507050108 11 135 0.0 3.2 0.00 0.00 0.00 84 1017.9
20260507045908 11 119 0.0 3.2 0.00 0.00 0.00 84 1017.9
20260507045708 10 133 0.0 3.2 0.00 0.00 0.00 86 1017.9
20260507045508 10 189 3.2 3.2 0.00 0.00 0.00 85 1017.8
20260507045308 10 130 0.0 3.2 0.00 0.00 0.00 85 1017.7
20260507045108 10 128 0.0 3.2 0.00 0.00 0.00 86 1017.9
20260507044908 10 93 0.0 3.2 0.00 0.00 0.00 87 1017.7
20260507044708 10 134 0.0 3.2 0.00 0.00 0.00 88 1017.9
20260507044308 10 205 0.0 3.2 0.00 0.00 0.00 86 1017.8
20260507044108 10 139 0.0 3.2 0.00 0.00 0.00 86 1017.8
20260507043908 10 113 0.0 3.2 0.00 0.00 0.00 86 1017.6
20260507043708 10 101 1.6 3.2 0.00 0.00 0.00 86 1017.6
20260507043508 10 59 0.0 3.2 0.00 0.00 0.00 87 1017.5
20260507043309 9 108 1.6 3.2 0.00 0.00 0.00 87 1017.7
20260507043109 9 71 0.0 3.2 0.00 0.00 0.00 88 1017.7
20260507042909 9 133 0.0 3.2 0.00 0.00 0.00 88 1017.8
20260507042709 9 115 3.2 3.2 0.00 0.00 0.00 89 1017.9
20260507042508 8 127 1.6 3.2 0.00 0.00 0.00 91 1017.8
20260507042308 8 68 1.6 3.2 0.00 0.00 0.00 92 1017.6
20260507042108 8 300 0.0 3.2 0.00 0.00 0.00 93 1017.7
20260507041908 8 340 0.0 3.2 0.00 0.00 0.00 94 1017.6
20260507041708 7 290 1.6 3.2 0.00 0.00 0.00 95 1017.6
20260507041508 7 355 0.0 4.8 0.00 0.00 0.00 95 1017.5
20260507041308 7 340 1.6 4.8 0.00 0.00 0.00 96 1017.6
20260507041109 7 320 0.0 4.8 0.00 0.00 0.00 96 1017.6
20260507040909 7 20 3.2 4.8 0.00 0.00 0.00 96 1017.4
20260507040709 7 35 1.6 4.8 0.00 0.00 0.00 97 1017.7
20260507040509 6 39 0.0 3.2 0.00 0.00 0.00 97 1017.6
20260507040310 6 38 0.0 3.2 0.00 0.00 0.00 97 1017.7
20260507040108 6 31 0.0 3.2 0.00 0.00 0.00 97 1017.5
20260507035908 6 50 0.0 3.2 0.00 0.00 0.00 97 1017.5
20260507035708 6 33 0.0 3.2 0.00 0.00 0.00 97 1017.4
20260507035508 6 30 0.0 3.2 0.00 0.00 0.00 97 1017.5
20260507035308 6 25 0.0 3.2 0.00 0.00 0.00 97 1017.6
20260507035108 6 20 1.6 3.2 0.00 0.00 0.00 97 1017.6
20260507034908 6 17 1.6 3.2 0.00 0.00 0.00 97 1017.5
20260507034708 6 13 1.6 3.2 0.00 0.00 0.00 97 1017.5
20260507034508 6 358 1.6 3.2 0.00 0.00 0.00 97 1017.5
20260507034308 6 359 1.6 3.2 0.00 0.00 0.00 97 1017.5
20260507034108 6 22 0.0 3.2 0.00 0.00 0.00 97 1017.5
20260507033908 6 5 1.6 3.2 0.00 0.00 0.00 97 1017.7
20260507033708 6 2 0.0 3.2 0.00 0.00 0.00 97 1017.5
20260507033508 6 22 1.6 3.2 0.00 0.00 0.00 97 1017.6
20260507033308 6 22 1.6 3.2 0.00 0.00 0.00 97 1017.4
20260507033108 6 2 0.0 3.2 0.00 0.00 0.00 97 1017.7
20260507032908 6 23 3.2 3.2 0.00 0.00 0.00 97 1017.5
20260507032708 6 18 0.0 3.2 0.00 0.00 0.00 97 1017.5
20260507032508 6 322 1.6 3.2 0.00 0.00 0.00 97 1017.5
20260507032309 6 47 0.0 3.2 0.00 0.00 0.00 96 1017.4
20260507032110 6 135 0.0 3.2 0.00 0.00 0.00 97 1017.4
20260507031909 6 340 0.0 3.2 0.00 0.00 0.00 97 1017.3
20260507031709 6 2 1.6 3.2 0.00 0.00 0.00 97 1017.4
20260507031509 6 7 3.2 3.2 0.00 0.00 0.00 97 1017.4
20260507031309 6 40 3.2 4.8 0.00 0.00 0.00 97 1017.3
20260507031109 6 7 0.0 4.8 0.00 0.00 0.00 97 1017.3
20260507030909 6 2 0.0 4.8 0.00 0.00 0.00 97 1017.3
20260507030709 6 9 0.0 4.8 0.00 0.00 0.00 97 1017.5
20260507030508 6 31 1.6 4.8 0.00 0.00 0.00 97 1017.6
20260507030308 6 30 3.2 4.8 0.00 0.00 0.00 97 1017.4
20260507030109 6 33 3.2 4.8 0.00 0.00 0.00 97 1017.4
20260507025908 6 21 3.2 4.8 0.00 0.00 0.00 97 1017.5
20260507025709 6 61 1.6 4.8 0.00 0.00 0.00 97 1017.3
20260507025508 6 22 3.2 4.8 0.00 0.00 0.00 97 1017.3
20260507025308 6 46 3.2 3.2 0.00 0.00 0.00 96 1017.4
20260507025108 6 29 1.6 3.2 0.00 0.00 0.00 96 1017.2
20260507024908 6 36 0.0 3.2 0.00 0.00 0.00 96 1017.5
20260507024708 6 31 0.0 4.8 0.00 0.00 0.00 96 1017.2
20260507024508 6 30 0.0 4.8 0.00 0.00 0.00 96 1017.3
20260507024308 6 19 0.0 4.8 0.00 0.00 0.00 96 1017.2
20260507024108 6 38 0.0 4.8 0.00 0.00 0.00 96 1017.3
20260507023909 6 39 3.2 4.8 0.00 0.00 0.00 96 1017.1
20260507023708 6 35 0.0 3.2 0.00 0.00 0.00 96 1017.2
20260507023508 6 46 1.6 3.2 0.00 0.00 0.00 96 1017.2
20260507023308 6 18 0.0 3.2 0.00 0.00 0.00 96 1017.0
20260507023108 6 33 1.6 3.2 0.00 0.00 0.00 96 1017.2
20260507022908 6 25 1.6 3.2 0.00 0.00 0.00 95 1017.1
20260507022708 6 3 0.0 3.2 0.00 0.00 0.00 95 1017.0
20260507022308 6 9 0.0 3.2 0.00 0.00 0.00 95 1017.2
20260507022108 6 48 1.6 3.2 0.00 0.00 0.00 95 1017.3
20260507021909 6 37 3.2 3.2 0.00 0.00 0.00 96 1017.1
20260507021708 6 29 0.0 3.2 0.00 0.00 0.00 96 1017.2
20260507021508 6 33 1.6 4.8 0.00 0.00 0.00 96 1017.3
20260507021308 7 20 0.0 4.8 0.00 0.00 0.00 96 1017.2
20260507021108 6 22 3.2 4.8 0.00 0.00 0.00 96 1017.3
20260507020908 7 19 0.0 4.8 0.00 0.00 0.00 96 1017.3
20260507020708 7 17 1.6 4.8 0.00 0.00 0.00 96 1017.2
20260507020507 7 21 3.2 4.8 0.00 0.00 0.00 96 1017.2
20260507020309 6 14 3.2 4.8 0.00 0.00 0.00 96 1017.1
20260507020108 6 347 0.0 4.8 0.00 0.00 0.00 97 1017.3
20260507015908 6 340 1.6 4.8 0.00 0.00 0.00 97 1017.2
20260507015710 6 358 0.0 3.2 0.00 0.00 0.00 97 1017.1
20260507015508 6 330 3.2 4.8 0.00 0.00 0.00 97 1017.2
20260507015308 6 17 0.0 4.8 0.00 0.00 0.00 97 1017.2
20260507015109 6 357 0.0 4.8 0.00 0.00 0.00 97 1017.1
20260507014908 6 5 0.0 4.8 0.00 0.00 0.00 97 1017.2
20260507014708 6 336 0.0 4.8 0.00 0.00 0.00 97 1017.1
20260507014508 6 7 1.6 3.2 0.00 0.00 0.00 97 1017.2
20260507014309 6 354 1.6 3.2 0.00 0.00 0.00 97 1017.1
20260507014108 6 334 3.2 3.2 0.00 0.00 0.00 97 1017.2
20260507013908 6 7 1.6 3.2 0.00 0.00 0.00 97 1017.3
20260507013708 6 3 0.0 3.2 0.00 0.00 0.00 97 1017.1
20260507013508 6 8 0.0 3.2 0.00 0.00 0.00 97 1017.3
20260507013308 6 331 0.0 3.2 0.00 0.00 0.00 97 1017.2
20260507013109 6 24 1.6 3.2 0.00 0.00 0.00 97 1017.1
20260507012908 6 21 0.0 4.8 0.00 0.00 0.00 97 1017.3
20260507012708 6 55 1.6 4.8 0.00 0.00 0.00 97 1017.1
20260507012509 6 284 0.0 4.8 0.00 0.00 0.00 97 1017.2
20260507012308 6 356 0.0 4.8 0.00 0.00 0.00 97 1017.0
20260507012108 6 28 1.6 4.8 0.00 0.00 0.00 97 1017.1
20260507011908 6 19 3.2 3.2 0.00 0.00 0.00 97 1017.3
20260507011708 6 343 3.2 4.8 0.00 0.00 0.00 97 1017.1
20260507011509 6 357 0.0 4.8 0.00 0.00 0.00 97 1017.1
20260507011309 6 333 1.6 4.8 0.00 0.00 0.00 97 1016.8
20260507011108 6 359 0.0 4.8 0.00 0.00 0.00 97 1016.8
20260507010909 6 0 1.6 4.8 0.00 0.00 0.00 96 1016.8
20260507010709 6 31 1.6 4.8 0.00 0.00 0.00 96 1017.2
20260507010508 6 13 3.2 4.8 0.00 0.00 0.00 96 1017.1
20260507010309 6 338 0.0 4.8 0.00 0.00 0.00 96 1016.8
20260507010108 6 351 1.6 3.2 0.00 0.00 0.00 96 1016.8
20260507005908 6 10 0.0 3.2 0.00 0.00 0.00 96 1017.0
20260507005708 6 7 1.6 3.2 0.00 0.00 0.00 96 1017.0
20260507005508 6 355 3.2 3.2 0.00 0.00 0.00 96 1016.8
20260507005308 7 1 1.6 3.2 0.00 0.00 0.00 96 1017.2
20260507005108 7 1 0.0 3.2 0.00 0.00 0.00 96 1017.1
20260507004912 7 11 0.0 3.2 0.00 0.00 0.00 96 1017.1
20260507004708 7 10 0.0 3.2 0.00 0.00 0.00 96 1016.8
20260507004508 7 16 0.0 3.2 0.00 0.00 0.00 95 1016.8
20260507004309 7 11 1.6 3.2 0.00 0.00 0.00 95 1017.0
20260507004108 7 353 0.0 3.2 0.00 0.00 0.00 95 1016.8
20260507003909 7 6 0.0 3.2 0.00 0.00 0.00 95 1016.7
20260507003709 7 9 1.6 3.2 0.00 0.00 0.00 95 1016.8
20260507003508 7 10 3.2 3.2 0.00 0.00 0.00 95 1016.7
20260507003309 7 31 0.0 3.2 0.00 0.00 0.00 96 1016.8
20260507003108 7 2 0.0 3.2 0.00 0.00 0.00 96 1016.7
20260507002909 7 11 0.0 3.2 0.00 0.00 0.00 96 1016.8
20260507002709 7 2 3.2 3.2 0.00 0.00 0.00 96 1016.7
20260507002508 7 13 3.2 3.2 0.00 0.00 0.00 96 1017.1
20260507002308 7 359 1.6 3.2 0.00 0.00 0.00 96 1016.7
20260507002108 7 11 1.6 3.2 0.00 0.00 0.00 96 1016.7
20260507001908 7 7 1.6 3.2 0.00 0.00 0.00 96 1016.8
20260507001708 7 19 1.6 3.2 0.00 0.00 0.00 96 1016.8
20260507001508 7 355 0.0 3.2 0.00 0.00 0.00 96 1017.0
20260507001308 7 333 3.2 3.2 0.00 0.00 0.00 96 1017.0
20260507001109 7 318 0.0 3.2 0.00 0.00 0.00 96 1017.0
20260507000908 7 3 3.2 3.2 0.00 0.00 0.00 96 1017.0
20260507000708 7 40 0.0 3.2 0.00 0.00 0.00 95 1016.8
20260507000508 7 17 1.6 3.2 0.00 0.00 0.00 95 1016.8
20260507000308 7 35 0.0 3.2 0.00 0.00 0.00 95 1017.1
20260507000109 7 60 3.2 3.2 0.00 0.00 0.00 95 1017.0
20260506235908 7 13 1.6 3.2 0.00 0.00 0.00 95 1017.1
20260506235806 7 25 0.0 3.2 0.00 0.00 0.00 95 1017.2
20260506235713 7 25 0.0 3.2 0.00 0.00 0.00 95 1017.2
20260506235508 7 7 0.0 3.2 0.00 0.00 0.00 95 1017.0
20260506235308 7 30 1.6 3.2 0.00 0.00 0.00 95 1017.0
20260506235109 7 45 1.6 3.2 0.00 0.00 0.00 95 1017.0
20260506234908 7 355 0.0 3.2 0.00 0.00 0.00 95 1017.0
20260506234709 7 7 0.0 3.2 0.00 0.00 0.00 95 1017.1
20260506234508 7 11 3.2 3.2 0.00 0.00 0.00 94 1017.1
20260506234308 7 356 1.6 3.2 0.00 0.00 0.00 94 1016.8
20260506234109 8 350 0.0 3.2 0.00 0.00 0.00 94 1017.1
20260506233908 8 30 0.0 3.2 0.00 0.00 0.00 94 1017.1
20260506233708 8 7 1.6 3.2 0.00 0.00 0.00 94 1017.2
20260506233509 8 335 0.0 3.2 0.00 0.00 0.00 94 1017.2
20260506233309 8 16 0.0 3.2 0.00 0.00 0.00 94 1017.1
20260506233109 8 329 0.0 3.2 0.00 0.00 0.00 93 1017.0
20260506232909 8 31 1.6 4.8 0.00 0.00 0.00 93 1017.2
20260506232709 8 126 0.0 4.8 0.00 0.00 0.00 93 1017.1
20260506232508 8 16 1.6 4.8 0.00 0.00 0.00 92 1017.3
20260506232309 8 328 0.0 4.8 0.00 0.00 0.00 92 1017.2
20260506232108 8 329 3.2 4.8 0.00 0.00 0.00 92 1017.2
20260506231908 8 7 0.0 3.2 0.00 0.00 0.00 92 1017.1
20260506231708 8 35 0.0 3.2 0.00 0.00 0.00 92 1017.2
20260506231508 8 27 3.2 4.8 0.00 0.00 0.00 92 1017.2
20260506231310 8 332 0.0 4.8 0.00 0.00 0.00 92 1017.3
20260506231109 8 337 3.2 4.8 0.00 0.00 0.00 93 1017.2
20260506230910 8 332 0.0 4.8 0.00 0.00 0.00 93 1017.1
20260506230709 8 341 3.2 4.8 0.00 0.00 0.00 93 1017.2
20260506230509 8 46 1.6 3.2 0.00 0.00 0.00 93 1017.3
20260506230308 8 357 0.0 3.2 0.00 0.00 0.00 93 1017.0
20260506230107 8 319 1.6 3.2 0.00 0.00 0.00 94 1017.3
20260506225908 8 336 3.2 3.2 0.00 0.00 0.00 94 1017.3
20260506225708 8 328 0.0 3.2 0.00 0.00 0.00 94 1017.2
20260506225507 8 0 0.0 3.2 0.00 0.00 0.00 94 1017.2
20260506225307 8 335 0.0 3.2 0.00 0.00 0.00 94 1017.2
20260506225107 8 16 0.0 3.2 0.00 0.00 0.00 94 1017.4
20260506224907 8 19 0.0 3.2 0.00 0.00 0.00 94 1017.3
20260506224708 8 14 1.6 3.2 0.00 0.00 0.00 94 1017.4
20260506224508 8 14 3.2 3.2 0.00 0.00 0.00 94 1017.3
20260506224308 8 332 0.0 3.2 0.00 0.00 0.00 93 1017.3
20260506224107 8 328 0.0 3.2 0.00 0.00 0.00 93 1017.2
20260506223907 8 27 0.0 3.2 0.00 0.00 0.00 93 1017.3
20260506223707 8 9 0.0 3.2 0.00 0.00 0.00 93 1017.3
20260506223507 8 355 0.0 3.2 0.00 0.00 0.00 93 1017.5
20260506223307 8 350 0.0 3.2 0.00 0.00 0.00 93 1017.5
20260506223108 8 33 1.6 4.8 0.00 0.00 0.00 93 1017.3
20260506222907 8 34 0.0 4.8 0.00 0.00 0.00 93 1017.3
20260506222707 8 32 0.0 4.8 0.00 0.00 0.00 92 1017.5
20260506222507 9 14 0.0 4.8 0.00 0.00 0.00 92 1017.5
20260506222308 9 323 1.6 4.8 0.00 0.00 0.00 92 1017.3
20260506222107 9 254 0.0 3.2 0.00 0.00 0.00 92 1017.4
20260506221907 9 323 1.6 3.2 0.00 0.00 0.00 92 1017.5
20260506221708 9 21 3.2 3.2 0.00 0.00 0.00 91 1017.5
20260506221507 9 2 1.6 3.2 0.00 0.00 0.00 91 1017.5
20260506221307 9 0 1.6 3.2 0.00 0.00 0.00 90 1017.4
20260506221107 9 9 1.6 3.2 0.00 0.00 0.00 90 1017.5
20260506220907 9 66 1.6 3.2 0.00 0.00 0.00 90 1017.5
20260506220707 9 319 0.0 3.2 0.00 0.00 0.00 89 1017.5
20260506220508 9 37 0.0 3.2 0.00 0.00 0.00 89 1017.4
20260506220308 10 178 0.0 3.2 0.00 0.00 0.00 88 1017.5
20260506220107 10 103 0.0 4.8 0.00 0.00 0.00 87 1017.5
20260506215907 10 161 0.0 4.8 0.00 0.00 0.00 86 1017.5
20260506215708 10 120 1.6 4.8 0.00 0.00 0.00 85 1017.4
20260506215507 11 338 0.0 4.8 0.00 0.00 0.00 85 1017.5
20260506215307 11 56 1.6 4.8 0.00 0.00 0.00 85 1017.5
20260506215107 10 50 0.0 3.2 0.00 0.00 0.00 85 1017.6
20260506214907 11 95 3.2 3.2 0.00 0.00 0.00 84 1017.4
20260506214707 11 32 1.6 3.2 0.00 0.00 0.00 84 1017.4
20260506214507 11 77 0.0 3.2 0.00 0.00 0.00 83 1017.5
20260506214308 11 99 1.6 4.8 0.00 0.00 0.00 83 1017.5
20260506214108 11 345 0.0 4.8 0.00 0.00 0.00 83 1017.5
20260506213907 11 315 0.0 4.8 0.00 0.00 0.00 83 1017.4
20260506213707 11 354 0.0 4.8 0.00 0.00 0.00 83 1017.7
20260506213508 11 79 1.6 4.8 0.00 0.00 0.00 83 1017.7
20260506213307 11 49 0.0 3.2 0.00 0.00 0.00 84 1017.6
20260506213107 11 5 0.0 3.2 0.00 0.00 0.00 84 1017.7
20260506212907 11 12 0.0 3.2 0.00 0.00 0.00 84 1017.5
20260506212707 11 31 0.0 3.2 0.00 0.00 0.00 84 1017.6
20260506212507 11 44 0.0 3.2 0.00 0.00 0.00 84 1017.6
20260506212309 11 308 1.6 3.2 0.00 0.00 0.00 84 1017.5
20260506212108 11 242 0.0 3.2 0.00 0.00 0.00 84 1017.6
20260506211908 11 318 0.0 3.2 0.00 0.00 0.00 83 1017.6
20260506211708 11 147 1.6 3.2 0.00 0.00 0.00 83 1017.7
20260506211507 11 71 0.0 3.2 0.00 0.00 0.00 82 1017.5
20260506211107 11 66 0.0 3.2 0.00 0.00 0.00 81 1017.5
20260506210907 11 303 1.6 3.2 0.00 0.00 0.00 81 1017.6
20260506210707 12 325 0.0 3.2 0.00 0.00 0.00 79 1017.6
20260506210507 12 347 0.0 4.8 0.00 0.00 0.00 79 1017.4
20260506210308 12 11 0.0 4.8 0.00 0.00 0.00 79 1017.7
20260506210108 12 31 0.0 4.8 0.00 0.00 0.00 79 1017.5
20260506205907 12 61 0.0 4.8 0.00 0.00 0.00 79 1017.5
20260506205707 12 58 3.2 4.8 0.00 0.00 0.00 79 1017.6
20260506205507 11 42 3.2 3.2 0.00 0.00 0.00 81 1017.5
20260506205308 11 328 1.6 3.2 0.00 0.00 0.00 83 1017.5
20260506205108 11 44 0.0 3.2 0.00 0.00 0.00 83 1017.4
20260506204907 11 132 0.0 3.2 0.00 0.00 0.00 83 1017.6
20260506204708 12 180 0.0 3.2 0.00 0.00 0.00 82 1017.7
20260506204507 12 159 1.6 3.2 0.00 0.00 0.00 82 1017.5
20260506204307 12 143 1.6 3.2 0.00 0.00 0.00 81 1017.6
20260506204109 12 121 3.2 3.2 0.00 0.00 0.00 80 1017.4
20260506203908 12 87 0.0 1.6 0.00 0.00 0.00 80 1017.2
20260506203708 12 352 0.0 1.6 0.00 0.00 0.00 80 1017.5
20260506203507 12 227 0.0 1.6 0.00 0.00 0.00 79 1017.7
20260506203307 12 357 0.0 3.2 0.00 0.00 0.00 79 1017.5
20260506203108 12 304 0.0 3.2 0.00 0.00 0.00 79 1017.6
20260506202907 12 336 0.0 3.2 0.00 0.00 0.00 79 1017.5
20260506202707 13 205 0.0 3.2 0.00 0.00 0.00 78 1017.7
20260506202507 13 242 0.0 3.2 0.00 0.00 0.00 77 1017.6
20260506202307 13 159 0.0 3.2 0.00 0.00 0.00 76 1017.5
20260506202107 13 202 0.0 3.2 0.00 0.00 0.00 73 1017.6
20260506201907 13 58 0.0 3.2 0.00 0.00 0.00 72 1017.7
20260506201707 14 25 0.0 3.2 0.00 0.00 0.00 71 1017.4
20260506201507 14 45 3.2 3.2 0.00 0.00 0.00 71 1017.3
20260506201307 14 55 0.0 3.2 0.00 0.00 0.00 71 1017.5
20260506201108 14 44 0.0 3.2 0.00 0.00 0.00 71 1017.4
20260506200907 14 180 0.0 3.2 0.00 0.00 0.00 71 1017.3
20260506200707 14 35 0.0 3.2 0.00 0.00 0.00 71 1017.4
20260506200508 14 92 0.0 3.2 0.00 0.00 0.00 71 1017.4
20260506200308 14 100 0.0 3.2 0.00 0.00 0.00 71 1017.3
20260506200108 14 333 0.0 3.2 0.00 0.00 0.00 71 1017.3
20260506195908 15 59 0.0 3.2 0.00 0.00 0.00 70 1017.4
20260506195707 15 34 0.0 3.2 0.00 0.00 0.00 69 1017.4
20260506195507 15 32 0.0 3.2 0.00 0.00 0.00 70 1017.3
20260506195308 15 31 0.0 3.2 0.00 0.00 0.00 69 1017.4
20260506195107 15 348 0.0 3.2 0.00 0.00 0.00 69 1017.5
20260506194907 15 32 0.0 3.2 0.00 0.00 0.00 70 1017.4
20260506194708 15 104 0.0 4.8 0.00 0.00 0.00 70 1017.5
20260506194507 15 64 1.6 4.8 0.00 0.00 0.00 69 1017.2
20260506194309 15 29 0.0 4.8 0.00 0.00 0.00 69 1017.2
20260506194108 15 12 3.2 4.8 0.00 0.00 0.00 69 1017.3
20260506193908 15 28 1.6 4.8 0.00 0.00 0.00 68 1017.1
20260506193707 15 14 0.0 4.8 0.00 0.00 0.00 69 1017.3
20260506193508 15 65 0.0 4.8 0.00 0.00 0.00 68 1017.2
20260506193308 15 60 0.0 4.8 0.00 0.00 0.00 68 1017.3
20260506193108 15 58 0.0 4.8 0.00 0.00 0.00 68 1017.3
20260506192908 15 140 0.0 4.8 0.00 0.00 0.00 68 1017.2
20260506192708 15 56 1.6 6.4 0.00 0.00 0.00 68 1017.2
20260506192507 15 38 0.0 6.4 0.00 0.00 0.00 68 1017.4
20260506192307 15 45 1.6 6.4 0.00 0.00 0.00 68 1017.1
20260506192107 15 3 3.2 6.4 0.00 0.00 0.00 68 1017.0
20260506191907 15 44 3.2 6.4 0.00 0.00 0.00 68 1017.2
20260506191708 15 12 1.6 4.8 0.00 0.00 0.00 68 1017.0
20260506191507 15 38 3.2 4.8 0.00 0.00 0.00 68 1017.2
20260506191307 15 1 4.8 4.8 0.00 0.00 0.00 68 1017.0
20260506191107 16 58 0.0 4.8 0.00 0.00 0.00 68 1017.0
20260506190907 16 8 1.6 4.8 0.00 0.00 0.00 67 1016.6
20260506190707 16 73 4.8 4.8 0.00 0.00 0.00 67 1016.7
20260506190507 16 27 1.6 4.8 0.00 0.00 0.00 67 1016.7
20260506190307 16 13 3.2 4.8 0.00 0.00 0.00 67 1017.1
20260506190107 16 19 3.2 4.8 0.00 0.00 0.00 68 1017.1
20260506185907 16 23 1.6 6.4 0.00 0.00 0.00 68 1017.0
20260506185709 16 40 0.0 6.4 0.00 0.00 0.00 68 1016.7
20260506185507 16 17 3.2 6.4 0.00 0.00 0.00 68 1016.7
20260506185308 16 22 1.6 6.4 0.00 0.00 0.00 68 1016.8
20260506185108 16 50 1.6 6.4 0.00 0.00 0.00 67 1016.8
20260506184907 16 51 1.6 6.4 0.00 0.00 0.00 68 1016.6
20260506184707 16 58 0.0 6.4 0.00 0.00 0.00 68 1017.0
20260506184507 16 66 1.6 6.4 0.00 0.00 0.00 67 1016.6
20260506184307 16 13 3.2 6.4 0.00 0.00 0.00 66 1016.8
20260506184107 16 22 4.8 6.4 0.00 0.00 0.00 66 1016.6
20260506183907 16 20 3.2 6.4 0.00 0.00 0.00 66 1016.6
20260506183709 16 81 0.0 6.4 0.00 0.00 0.00 66 1016.5
20260506183509 16 42 4.8 6.4 0.00 0.00 0.00 66 1016.7
20260506183307 16 36 3.2 6.4 0.00 0.00 0.00 66 1016.3
20260506183108 16 34 3.2 6.4 0.00 0.00 0.00 66 1016.4
20260506182908 16 4 1.6 8.0 0.00 0.00 0.00 66 1016.4
20260506182707 17 10 3.2 8.0 0.00 0.00 0.00 66 1016.6
20260506182507 17 38 3.2 8.0 0.00 0.00 0.00 66 1016.4
20260506182308 17 31 1.6 8.0 0.00 0.00 0.00 65 1016.3
20260506182107 17 6 1.6 8.0 0.00 0.00 0.00 65 1016.2
20260506181908 17 73 3.2 8.0 0.00 0.00 0.00 66 1016.2
20260506181708 17 25 3.2 8.0 0.00 0.00 0.00 66 1016.1
20260506181508 17 16 6.4 8.0 0.00 0.00 0.00 66 1016.4
20260506181307 17 21 3.2 8.0 0.00 0.00 0.00 66 1016.3
20260506181107 17 23 3.2 6.4 0.00 0.00 0.00 66 1016.1
20260506180907 17 38 3.2 6.4 0.00 0.00 0.00 66 1016.2
20260506180707 17 7 3.2 8.0 0.00 0.00 0.00 65 1015.9
20260506180507 17 24 3.2 8.0 0.00 0.00 0.00 65 1016.1
20260506180307 17 12 3.2 8.0 0.00 0.00 0.00 65 1015.8
20260506180108 17 34 3.2 8.0 0.00 0.00 0.00 64 1016.0
20260506175907 17 38 6.4 8.0 0.00 0.00 0.00 64 1016.0
20260506175707 17 34 3.2 8.0 0.00 0.00 0.00 64 1016.1
20260506175507 17 26 6.4 6.4 0.00 0.00 0.00 64 1015.9
20260506175306 17 20 3.2 6.4 0.00 0.00 0.00 64 1015.8
20260506175105 17 8 3.2 6.4 0.00 0.00 0.00 64 1015.8
20260506174905 18 27 3.2 8.0 0.00 0.00 0.00 63 1015.7
20260506174705 18 21 3.2 8.0 0.00 0.00 0.00 63 1015.7
20260506174505 18 18 4.8 8.0 0.00 0.00 0.00 63 1015.6
20260506174305 18 20 1.6 9.7 0.00 0.00 0.00 63 1015.6
20260506174106 18 26 4.8 9.7 0.00 0.00 0.00 63 1015.5
20260506173905 18 310 0.0 9.7 0.00 0.00 0.00 63 1015.6
20260506173705 18 32 1.6 9.7 0.00 0.00 0.00 62 1015.6
20260506173505 18 0 3.2 9.7 0.00 0.00 0.00 62 1015.4
20260506173106 18 26 3.2 11.3 0.00 0.00 0.00 61 1015.4
20260506172905 18 66 0.0 11.3 0.00 0.00 0.00 61 1015.3
20260506172705 18 18 1.6 11.3 0.00 0.00 0.00 60 1015.4
20260506172506 19 25 4.8 11.3 0.00 0.00 0.00 61 1015.3
20260506172307 19 13 3.2 11.3 0.00 0.00 0.00 61 1015.4
20260506172105 19 11 4.8 9.7 0.00 0.00 0.00 60 1015.5
20260506171906 19 54 3.2 8.0 0.00 0.00 0.00 60 1015.5
20260506171705 19 27 3.2 9.7 0.00 0.00 0.00 60 1015.4
20260506171505 19 4 4.8 9.7 0.00 0.00 0.00 60 1015.4
20260506171305 19 339 3.2 9.7 0.00 0.00 0.00 60 1015.5
20260506171106 19 353 3.2 9.7 0.00 0.00 0.00 59 1015.3
20260506170905 20 23 3.2 9.7 0.00 0.00 0.00 59 1015.3
20260506170706 20 14 6.4 9.7 0.00 0.00 0.00 59 1015.2
20260506170505 20 336 3.2 9.7 0.00 0.00 0.00 58 1015.2
20260506170305 20 31 4.8 11.3 0.00 0.00 0.00 58 1015.1
20260506170106 20 45 4.8 11.3 0.00 0.00 0.00 57 1015.1
20260506165906 20 38 0.0 11.3 0.00 0.00 0.00 58 1015.2
20260506165705 20 60 1.6 11.3 0.00 0.00 0.00 57 1015.3
20260506165506 20 18 3.2 11.3 0.00 0.00 0.00 56 1015.2
20260506165306 21 11 4.8 8.0 0.00 0.00 0.00 56 1015.2
20260506165106 21 19 3.2 8.0 0.00 0.00 0.00 55 1015.0
20260506164906 21 11 3.2 9.7 0.00 0.00 0.00 55 1015.1
20260506164706 21 36 4.8 9.7 0.00 0.00 0.00 54 1015.1
20260506164506 21 7 3.2 9.7 0.00 0.00 0.00 53 1015.0
20260506164305 21 24 3.2 9.7 0.00 0.00 0.00 53 1015.1
20260506164106 21 81 3.2 9.7 0.00 0.00 0.00 53 1015.1
20260506163910 21 5 3.2 9.7 0.00 0.00 0.00 53 1015.1
20260506163705 21 76 1.6 11.3 0.00 0.00 0.00 52 1014.9
20260506163506 21 62 8.0 11.3 0.00 0.00 0.00 51 1015.2
20260506163306 22 29 4.8 11.3 0.00 0.00 0.00 50 1014.9
20260506163105 22 11 3.2 11.3 0.00 0.00 0.00 51 1014.8
20260506162905 22 5 3.2 11.3 0.00 0.00 0.00 50 1014.8
20260506162705 22 26 6.4 11.3 0.00 0.00 0.00 49 1015.0
20260506162506 22 356 4.8 11.3 0.00 0.00 0.00 49 1015.0
20260506162307 22 21 4.8 11.3 0.00 0.00 0.00 49 1014.8
20260506162105 22 41 4.8 11.3 0.00 0.00 0.00 49 1015.1
20260506161906 22 16 3.2 11.3 0.00 0.00 0.00 48 1014.8
20260506161706 22 38 6.4 11.3 0.00 0.00 0.00 48 1014.7
20260506161505 22 35 3.2 11.3 0.00 0.00 0.00 49 1014.9
20260506161305 22 32 1.6 11.3 0.00 0.00 0.00 49 1014.7
20260506161105 22 26 4.8 11.3 0.00 0.00 0.00 49 1014.8
20260506160906 22 10 3.2 8.0 0.00 0.00 0.00 49 1015.0
20260506160707 22 355 3.2 8.0 0.00 0.00 0.00 49 1014.7
20260506160506 22 0 3.2 8.0 0.00 0.00 0.00 49 1014.7
20260506160306 22 6 1.6 8.0 0.00 0.00 0.00 49 1014.7
20260506160106 23 1 4.8 8.0 0.00 0.00 0.00 48 1014.7
20260506155906 23 25 4.8 8.0 0.00 0.00 0.00 49 1014.8
20260506155706 23 14 6.4 8.0 0.00 0.00 0.00 49 1014.9
20260506155506 23 174 3.2 11.3 0.00 0.00 0.00 49 1014.8
20260506155308 23 61 3.2 11.3 0.00 0.00 0.00 49 1014.8
20260506155107 23 13 6.4 11.3 0.00 0.00 0.00 48 1014.6
20260506154906 23 46 8.0 11.3 0.00 0.00 0.00 48 1014.8
20260506154706 23 12 3.2 11.3 0.00 0.00 0.00 47 1014.8
20260506154505 23 0 8.0 11.3 0.00 0.00 0.00 46 1014.8
20260506154305 23 2 8.0 11.3 0.00 0.00 0.00 46 1014.6
20260506154105 23 21 3.2 11.3 0.00 0.00 0.00 46 1014.4
20260506153905 23 356 3.2 11.3 0.00 0.00 0.00 47 1014.7
20260506153705 23 8 1.6 11.3 0.00 0.00 0.00 47 1014.7
20260506153505 23 4 3.2 9.7 0.00 0.00 0.00 45 1014.6
20260506153305 23 2 3.2 9.7 0.00 0.00 0.00 45 1014.7
20260506153105 23 349 4.8 9.7 0.00 0.00 0.00 45 1014.6
20260506152906 23 44 4.8 9.7 0.00 0.00 0.00 45 1014.8
20260506152706 23 286 3.2 9.7 0.00 0.00 0.00 46 1014.6
20260506152507 23 33 4.8 9.7 0.00 0.00 0.00 45 1014.8
20260506152306 23 21 3.2 12.9 0.00 0.00 0.00 46 1014.7
20260506152105 23 1 3.2 14.5 0.00 0.00 0.00 46 1014.6
20260506151906 23 35 3.2 14.5 0.00 0.00 0.00 45 1014.6
20260506151705 23 16 1.6 14.5 0.00 0.00 0.00 47 1014.6
20260506151505 23 339 4.8 14.5 0.00 0.00 0.00 47 1014.6
20260506151305 23 30 4.8 14.5 0.00 0.00 0.00 46 1014.8
20260506151105 23 27 1.6 11.3 0.00 0.00 0.00 46 1014.4
20260506150905 23 22 4.8 11.3 0.00 0.00 0.00 47 1014.8
20260506150705 22 246 0.0 11.3 0.00 0.00 0.00 47 1014.6
20260506150505 22 3 6.4 9.7 0.00 0.00 0.00 47 1014.7
20260506150308 22 2 4.8 9.7 0.00 0.00 0.00 47 1014.6
20260506150105 22 30 1.6 9.7 0.00 0.00 0.00 47 1014.7
20260506145905 22 0 3.2 9.7 0.00 0.00 0.00 46 1014.8
20260506145706 22 115 1.6 6.4 0.00 0.00 0.00 46 1014.8
20260506145506 22 3 3.2 6.4 0.00 0.00 0.00 47 1014.7
20260506145306 22 0 1.6 6.4 0.00 0.00 0.00 46 1014.6
20260506145106 23 22 3.2 6.4 0.00 0.00 0.00 45 1014.7
20260506144906 23 341 0.0 6.4 0.00 0.00 0.00 44 1014.6
20260506144716 23 356 1.6 6.4 0.00 0.00 0.00 43 1014.7
20260506144517 23 69 0.0 6.4 0.00 0.00 0.00 43 1014.7
20260506144328 23 1 1.6 6.4 0.00 0.00 0.00 43 1014.7
20260506144105 23 346 3.2 8.0 0.00 0.00 0.00 43 1014.7
20260506143905 23 43 1.6 8.0 0.00 0.00 0.00 43 1014.3
20260506143705 23 34 3.2 8.0 0.00 0.00 0.00 43 1014.3
20260506143505 23 343 1.6 8.0 0.00 0.00 0.00 44 1014.6
20260506143306 23 23 3.2 8.0 0.00 0.00 0.00 44 1014.4
20260506143105 23 326 4.8 6.4 0.00 0.00 0.00 43 1014.7
20260506142905 23 345 3.2 4.8 0.00 0.00 0.00 41 1014.8
20260506142705 23 65 1.6 4.8 0.00 0.00 0.00 41 1014.7
20260506142505 24 275 0.0 4.8 0.00 0.00 0.00 41 1014.6
20260506142306 24 315 0.0 4.8 0.00 0.00 0.00 41 1014.6
20260506142106 24 176 1.6 4.8 0.00 0.00 0.00 40 1014.6
20260506141906 24 129 0.0 4.8 0.00 0.00 0.00 40 1014.6
20260506141706 24 290 0.0 4.8 0.00 0.00 0.00 40 1014.6
20260506141506 24 75 0.0 4.8 0.00 0.00 0.00 40 1014.4
20260506141306 25 155 3.2 4.8 0.00 0.00 0.00 39 1014.8
20260506141105 25 279 1.6 4.8 0.00 0.00 0.00 39 1014.2
20260506140906 25 5 0.0 4.8 0.00 0.00 0.00 40 1014.7
20260506140706 24 226 0.0 4.8 0.00 0.00 0.00 40 1014.7
20260506140506 24 355 0.0 4.8 0.00 0.00 0.00 40 1014.6
20260506140306 24 325 0.0 4.8 0.00 0.00 0.00 41 1014.6
20260506140107 23 279 1.6 4.8 0.00 0.00 0.00 41 1014.7
20260506135905 23 195 1.6 6.4 0.00 0.00 0.00 42 1014.8
20260506135706 23 137 0.0 6.4 0.00 0.00 0.00 42 1014.8
20260506135506 23 155 4.8 6.4 0.00 0.00 0.00 42 1014.7
20260506135306 23 144 3.2 6.4 0.00 0.00 0.00 41 1014.6
20260506135105 23 21 1.6 6.4 0.00 0.00 0.00 40 1014.8
20260506134905 23 156 1.6 6.4 0.00 0.00 0.00 40 1014.6
20260506134705 23 55 3.2 6.4 0.00 0.00 0.00 41 1014.7
20260506134505 23 36 3.2 8.0 0.00 0.00 0.00 41 1014.8
20260506134305 23 342 6.4 8.0 0.00 0.00 0.00 40 1014.3
20260506133906 24 357 3.2 9.7 0.00 0.00 0.00 39 1014.6
20260506133705 24 41 4.8 9.7 0.00 0.00 0.00 39 1014.6
20260506133505 24 38 3.2 9.7 0.00 0.00 0.00 39 1014.4
20260506133306 24 3 4.8 9.7 0.00 0.00 0.00 38 1014.7
20260506133105 24 36 0.0 9.7 0.00 0.00 0.00 39 1014.6
20260506132905 25 7 4.8 9.7 0.00 0.00 0.00 39 1014.6
20260506132705 25 2 3.2 9.7 0.00 0.00 0.00 38 1014.4
20260506132505 25 1 3.2 8.0 0.00 0.00 0.00 39 1014.6
20260506132307 25 7 3.2 8.0 0.00 0.00 0.00 38 1014.6
20260506132105 26 349 4.8 8.0 0.00 0.00 0.00 35 1014.7
20260506131907 26 323 1.6 8.0 0.00 0.00 0.00 32 1014.7
20260506131706 26 145 0.0 8.0 0.00 0.00 0.00 30 1014.6
20260506131506 26 31 8.0 11.3 0.00 0.00 0.00 30 1014.4
20260506131306 26 290 1.6 11.3 0.00 0.00 0.00 30 1014.4
20260506131106 27 219 0.0 11.3 0.00 0.00 0.00 30 1014.4
20260506130906 27 345 3.2 11.3 0.00 0.00 0.00 29 1014.6
20260506130705 27 350 11.3 11.3 0.00 0.00 0.00 30 1014.4
20260506130506 27 357 1.6 8.0 0.00 0.00 0.00 30 1014.4
20260506130306 27 149 0.0 8.0 0.00 0.00 0.00 34 1014.6
20260506130105 27 189 0.0 8.0 0.00 0.00 0.00 32 1014.3
20260506125906 27 38 4.8 8.0 0.00 0.00 0.00 31 1014.8
20260506125706 27 340 3.2 8.0 0.00 0.00 0.00 32 1014.4
20260506125505 27 11 3.2 8.0 0.00 0.00 0.00 31 1014.7
20260506125306 27 325 3.2 8.0 0.00 0.00 0.00 31 1014.4
20260506125106 27 337 3.2 8.0 0.00 0.00 0.00 31 1014.4
20260506124905 27 66 3.2 8.0 0.00 0.00 0.00 30 1014.7
20260506124705 27 340 0.0 8.0 0.00 0.00 0.00 29 1014.7
20260506124505 27 242 3.2 8.0 0.00 0.00 0.00 30 1014.6
20260506124305 27 185 3.2 8.0 0.00 0.00 0.00 28 1014.9
20260506124105 27 212 3.2 8.0 0.00 0.00 0.00 29 1014.9
20260506123905 27 210 4.8 6.4 0.00 0.00 0.00 30 1014.7
20260506123706 27 234 3.2 6.4 0.00 0.00 0.00 31 1014.7
20260506123505 27 199 1.6 9.7 0.00 0.00 0.00 27 1014.3
20260506123305 27 244 1.6 9.7 0.00 0.00 0.00 26 1014.8
20260506123105 27 223 3.2 9.7 0.00 0.00 0.00 26 1014.8
20260506122905 26 256 0.0 9.7 0.00 0.00 0.00 29 1014.9
20260506122705 26 325 0.0 9.7 0.00 0.00 0.00 28 1014.8
20260506122505 26 26 0.0 4.8 0.00 0.00 0.00 29 1014.7
20260506122306 26 248 1.6 6.4 0.00 0.00 0.00 29 1014.9
20260506122105 26 23 1.6 6.4 0.00 0.00 0.00 28 1015.0
20260506121906 26 297 0.0 6.4 0.00 0.00 0.00 29 1014.8
20260506121706 27 8 1.6 6.4 0.00 0.00 0.00 27 1014.9
20260506121505 27 25 0.0 6.4 0.00 0.00 0.00 27 1015.0
20260506121305 27 316 0.0 6.4 0.00 0.00 0.00 27 1015.0
20260506121106 27 155 3.2 6.4 0.00 0.00 0.00 28 1014.7
20260506120906 27 191 3.2 6.4 0.00 0.00 0.00 28 1014.9
20260506120705 27 32 0.0 6.4 0.00 0.00 0.00 31 1014.8
20260506120505 27 324 1.6 6.4 0.00 0.00 0.00 29 1015.1
20260506120305 27 242 4.8 6.4 0.00 0.00 0.00 28 1015.0
20260506120105 27 326 1.6 6.4 0.00 0.00 0.00 28 1015.0
20260506115906 27 221 1.6 6.4 0.00 0.00 0.00 30 1015.2
20260506115706 27 239 3.2 6.4 0.00 0.00 0.00 30 1015.0
20260506115507 27 358 3.2 6.4 0.00 0.00 0.00 29 1015.1
20260506115307 27 201 3.2 8.0 0.00 0.00 0.00 29 1015.0
20260506115106 26 242 0.0 9.7 0.00 0.00 0.00 29 1015.0
20260506114906 26 37 1.6 9.7 0.00 0.00 0.00 30 1015.1
20260506114705 26 56 0.0 9.7 0.00 0.00 0.00 30 1015.1
20260506114505 26 195 0.0 12.9 0.00 0.00 0.00 29 1015.1
20260506114305 26 246 3.2 12.9 0.00 0.00 0.00 30 1015.2
20260506114105 26 263 3.2 12.9 0.00 0.00 0.00 31 1015.2
20260506113906 26 233 4.8 12.9 0.00 0.00 0.00 30 1015.1
20260506113705 26 285 3.2 12.9 0.00 0.00 0.00 30 1015.3
20260506113506 26 205 0.0 8.0 0.00 0.00 0.00 29 1015.2
20260506113306 26 30 3.2 8.0 0.00 0.00 0.00 28 1014.9
20260506113106 27 177 0.0 8.0 0.00 0.00 0.00 30 1015.1
20260506112905 26 237 0.0 8.0 0.00 0.00 0.00 30 1015.2
20260506112707 26 252 3.2 9.7 0.00 0.00 0.00 30 1015.2
20260506112505 26 250 4.8 12.9 0.00 0.00 0.00 30 1015.4
20260506112306 26 248 4.8 12.9 0.00 0.00 0.00 34 1015.4
20260506112106 26 243 3.2 12.9 0.00 0.00 0.00 29 1015.4
20260506111705 26 283 11.3 12.9 0.00 0.00 0.00 31 1015.2
20260506111505 26 211 4.8 12.9 0.00 0.00 0.00 32 1015.5
20260506111313 26 218 4.8 12.9 0.00 0.00 0.00 32 1015.3
20260506111106 26 241 6.4 12.9 0.00 0.00 0.00 34 1015.2
20260506110905 26 231 3.2 12.9 0.00 0.00 0.00 39 1015.1
20260506110705 26 226 8.0 12.9 0.00 0.00 0.00 35 1015.4
20260506110505 26 229 6.4 12.9 0.00 0.00 0.00 34 1015.3
20260506110305 26 242 4.8 12.9 0.00 0.00 0.00 33 1015.2
20260506110105 26 243 4.8 12.9 0.00 0.00 0.00 35 1015.4